SPAWAR-CAL-OR (43778 NORAD) Tracking and Keplerian Element Data

This shows tracking and keplerian element data for the satellite.

Feedback or suggestion? Click here.




ElementValue
Catalog43778
NameSPAWAR-CAL-OR
Epoch Orbit33703
Epoch Day34.67944564
Epoch Year2025
RAAN87.8885
Inclination97.4548
Eccentricity0.0013357
Argument of Perigee252.0668
Mean Anonmoly107.9107
Mean Motion15.12013687
Decay Rate0.00013089
L11 43778U 18099W 25034.67944564 .00013089 00000+0 76343-3 0 9991
L22 43778 97.4548 87.8885 0013357 252.0668 107.9107 15.12013687337035



Live tracking and technical data element details for SPAWAR-CAL-OR (NORAD 43778). SPAWAR-CAL-OR can be tracked NOW for your location showing map with azimuth and elevation plus other details from your city location.







IsCatalogInMostPopularTable: catalog: 43778, numindb: 293
Update: records affected: 1



GetName: 43778 SPAWAR-CAL-OR

Hit Count: updated at: Thu, 22 May 2025 04:06:50 GMT